�N����,����,�~����,�C��,���x,�C��,����,���ϕ���,�ő�u�ԕ���,�ő厞����,���˗�,�I�_���x,�n�����x,�ő啗���N��,DTYPE
"17/06/25","00:10",0.0,22.0,89.4,997.7,146.8,0.6,1.7,172.4,0.00,20.2,23.9,"00:03:04",1
"17/06/25","00:20",0.0,21.9,89.9,997.4,144.6,0.2,1.0,132.7,0.00,20.2,23.8,"00:10:32",1
"17/06/25","00:30",0.0,21.9,90.2,997.4,156.7,0.3,1.0,185.2,0.00,20.3,23.8,"00:29:52",1
"17/06/25","00:40",0.0,21.9,90.6,997.0,215.5,0.2,0.8,203.7,0.00,20.3,23.7,"00:30:24",1
"17/06/25","00:50",0.0,21.9,91.0,996.7,336.4,0.6,1.7,331.5,0.00,20.4,23.4,"00:49:36",1
"17/06/25","01:00",0.0,21.9,91.3,996.7,326.0,0.6,1.1,335.6,0.00,20.5,23.8,"00:51:20",1
"17/06/25","01:10",0.0,21.9,91.6,997.0,308.6,0.7,1.3,343.3,0.00,20.5,23.6,"01:01:52",1
"17/06/25","01:20",0.0,21.9,91.9,996.3,293.5,0.5,1.0,333.1,0.00,20.6,23.5,"01:17:20",1
"17/06/25","01:30",0.0,21.8,92.1,996.0,315.3,0.6,1.2,329.9,0.00,20.5,23.7,"01:28:56",1
"17/06/25","01:40",0.0,21.8,92.2,996.0,269.1,0.6,1.0,246.5,0.00,20.5,23.6,"01:38:08",1
"17/06/25","01:50",0.0,21.7,92.1,996.0,232.2,0.6,1.1,203.3,0.00,20.4,23.6,"01:48:32",1
"17/06/25","02:00",0.0,21.7,92.2,995.8,169.6,0.6,1.8,209.1,0.00,20.4,23.5,"01:54:16",1
"17/06/25","02:10",0.0,21.7,92.3,995.6,217.8,0.2,0.9,110.1,0.00,20.4,23.3,"02:00:40",1
"17/06/25","02:20",0.0,21.6,92.1,995.6,349.8,0.1,0.8,346.4,0.00,20.3,23.4,"02:19:28",1
"17/06/25","02:30",0.0,21.5,92.1,995.6,353.0,0.5,1.4,320.8,0.00,20.2,23.4,"02:23:44",1
"17/06/25","02:40",0.0,21.5,92.1,995.6,136.8,0.3,1.1,106.2,0.00,20.2,23.4,"02:32:16",1
"17/06/25","02:50",0.0,21.4,92.2,995.8,221.4,0.5,0.9,246.0,0.00,20.1,23.2,"02:42:40",1
"17/06/25","03:00",0.0,21.4,92.1,995.3,206.0,0.6,1.4,163.7,0.00,20.1,23.2,"02:57:52",1
"17/06/25","03:10",0.0,21.4,92.3,995.3,9.5,0.3,0.9,334.8,0.00,20.1,23.2,"03:05:20",1
"17/06/25","03:20",0.0,21.4,92.5,995.1,337.2,1.0,1.8,345.3,0.00,20.2,23.3,"03:14:48",1
"17/06/25","03:30",0.0,21.4,92.5,995.3,333.2,0.6,1.9,327.1,0.00,20.2,23.2,"03:28:00",1
"17/06/25","03:40",0.0,21.2,92.4,995.1,171.9,0.3,1.2,88.8,0.00,20.0,23.1,"03:33:28",1
"17/06/25","03:50",0.0,21.2,92.8,995.3,316.8,0.7,1.9,347.9,0.00,20.0,23.2,"03:47:04",1
"17/06/25","04:00",0.0,21.2,92.8,995.1,310.0,1.0,1.4,308.3,0.00,20.0,23.2,"03:54:08",1
"17/06/25","04:10",0.0,21.2,92.8,995.3,334.6,0.6,1.0,347.2,0.00,20.0,23.0,"04:05:20",1
"17/06/25","04:20",0.0,21.1,92.9,995.1,319.9,0.6,1.1,353.5,0.00,19.9,23.0,"04:13:12",1
"17/06/25","04:30",0.0,21.1,93.0,995.6,282.1,0.6,1.1,315.4,0.00,20.0,23.1,"04:28:48",1
"17/06/25","04:40",0.0,21.1,93.4,996.0,314.9,0.8,1.7,340.3,0.00,20.0,23.1,"04:34:00",1
"17/06/25","04:50",0.0,21.1,93.4,995.8,312.4,0.2,1.2,10.4,0.00,20.0,22.8,"04:49:28",1
"17/06/25","05:00",0.0,21.0,93.5,995.8,1.3,0.5,1.1,357.4,0.00,20.0,23.1,"04:58:00",1
"17/06/25","05:10",0.0,20.9,93.4,996.0,278.3,0.7,1.0,318.4,0.00,19.8,22.8,"05:01:04",1
"17/06/25","05:20",0.0,20.9,93.8,995.8,118.7,0.1,0.5,113.6,0.00,19.9,22.9,"05:16:24",1
"17/06/25","05:30",0.0,21.0,93.9,995.6,357.0,0.5,1.1,327.7,0.00,20.0,22.9,"05:26:24",1
"17/06/25","05:40",0.0,21.0,94.0,996.0,310.7,0.7,1.2,333.1,0.00,20.0,22.8,"05:39:52",1
"17/06/25","05:50",0.0,20.9,94.0,995.8,332.1,0.8,1.9,336.4,0.00,19.9,22.9,"05:40:16",1
"17/06/25","06:00",0.0,21.0,94.1,996.0,316.9,0.3,1.0,306.4,0.00,20.1,23.0,"05:57:36",1
"17/06/25","06:10",0.0,21.0,94.2,995.8,347.4,0.5,0.9,0.3,0.00,20.1,22.7,"06:03:28",1
"17/06/25","06:20",0.0,21.1,94.1,996.0,299.4,0.5,0.8,323.6,0.01,20.2,22.9,"06:15:28",1
"17/06/25","06:30",0.0,21.0,93.8,996.3,264.5,0.6,1.2,295.6,0.01,20.0,22.7,"06:20:02",1
"17/06/25","06:40",0.0,21.1,94.0,995.8,272.7,0.6,1.1,255.4,0.01,20.1,22.8,"06:34:24",1
"17/06/25","06:50",0.0,21.3,94.0,996.0,304.1,0.7,1.3,321.4,0.03,20.3,22.8,"06:45:12",1
"17/06/25","07:00",0.0,21.5,93.6,996.3,317.5,0.7,1.2,307.1,0.05,20.5,22.9,"06:52:16",1
"17/06/25","07:10",0.0,21.5,92.9,995.8,319.0,0.2,0.8,304.8,0.08,20.3,23.0,"07:01:12",1
"17/06/25","07:20",0.0,22.3,91.6,995.8,185.2,0.2,0.9,128.9,0.10,20.9,22.9,"07:15:36",1
"17/06/25","07:30",0.0,22.6,90.6,995.6,214.5,0.2,1.0,180.6,0.08,21.0,23.0,"07:29:04",1
"17/06/25","07:40",0.0,22.6,89.1,996.0,289.6,0.6,1.3,52.8,0.06,20.8,23.0,"07:33:12",1
"17/06/25","07:50",0.0,22.5,88.5,995.8,7.6,0.6,2.0,31.9,0.03,20.5,23.1,"07:47:36",1
"17/06/25","08:00",0.0,22.5,88.2,996.0,349.0,0.8,1.4,346.2,0.03,20.5,23.1,"07:51:44",1
"17/06/25","08:10",0.0,22.5,88.5,995.8,326.9,1.0,1.8,342.2,0.03,20.5,23.0,"08:02:24",1
"17/06/25","08:20",0.0,22.4,88.0,995.6,316.2,1.1,2.0,319.1,0.03,20.4,23.1,"08:10:08",1
"17/06/25","08:30",0.0,22.4,87.8,995.6,280.7,0.7,1.4,310.6,0.04,20.3,23.0,"08:27:44",1
"17/06/25","08:40",0.0,22.3,88.3,995.8,329.3,1.5,2.1,338.5,0.01,20.3,23.2,"08:33:12",1
"17/06/25","08:50",0.0,22.3,89.1,995.6,302.4,1.0,1.8,328.2,0.02,20.5,23.0,"08:40:16",1
"17/06/25","09:00",0.0,22.3,89.6,995.3,308.2,1.0,1.6,321.7,0.02,20.5,22.8,"08:52:40",1
"17/06/25","09:10",0.0,22.6,89.5,995.6,313.4,1.0,1.8,335.3,0.05,20.8,23.1,"09:03:28",1
"17/06/25","09:20",0.0,22.8,88.5,995.3,320.3,0.8,1.6,329.3,0.07,20.8,23.1,"09:10:08",1
"17/06/25","09:30",0.0,22.9,87.3,995.1,292.6,0.5,1.0,317.6,0.08,20.7,23.0,"09:22:56",1
"17/06/25","09:40",0.0,22.9,86.5,995.1,273.8,0.7,1.4,301.1,0.06,20.6,23.2,"09:35:52",1
"17/06/25","09:50",0.0,23.0,86.5,995.1,303.8,1.0,1.7,331.6,0.06,20.7,23.1,"09:48:56",1
"17/06/25","10:00",0.0,23.1,85.6,994.8,271.5,0.3,1.0,333.3,0.08,20.6,23.2,"09:50:08",1
"17/06/25","10:10",0.0,23.3,84.9,994.6,240.9,0.3,1.0,138.1,0.07,20.7,23.2,"10:06:48",1
"17/06/25","10:20",0.0,23.3,83.9,995.1,340.7,0.7,1.8,345.4,0.06,20.5,23.1,"10:17:28",1
"17/06/25","10:30",0.0,23.2,83.9,995.1,350.7,1.1,2.2,5.8,0.04,20.4,23.2,"10:29:44",1
"17/06/25","10:40",0.0,23.2,85.0,995.3,354.3,0.6,1.4,83.0,0.04,20.6,23.3,"10:32:48",1
"17/06/25","10:50",0.0,23.3,85.5,995.3,327.7,1.0,2.2,338.8,0.05,20.8,23.4,"10:45:20",1
"17/06/25","11:00",0.0,23.3,85.8,995.3,331.2,1.2,2.5,338.2,0.04,20.8,23.5,"10:58:32",1
"17/06/25","11:10",0.0,23.3,85.3,995.3,286.7,0.5,1.0,331.3,0.08,20.7,23.1,"11:00:16",1
"17/06/25","11:20",0.0,23.4,84.9,995.3,323.5,1.1,2.4,346.6,0.03,20.8,23.3,"11:15:28",1
"17/06/25","11:30",0.0,23.3,85.5,995.1,304.5,0.8,1.6,348.4,0.01,20.8,23.3,"11:20:08",1
"17/06/25","11:40",0.0,23.2,85.9,995.6,313.9,1.6,2.5,316.7,0.03,20.7,23.3,"11:35:12",1
"17/06/25","11:50",0.0,23.1,86.1,995.1,340.0,1.0,1.9,347.1,0.02,20.7,23.5,"11:42:32",1
"17/06/25","12:00",0.0,23.6,85.8,994.8,339.3,0.8,1.7,332.0,0.11,21.1,23.5,"11:50:40",1
"17/06/25","12:10",0.0,23.7,83.9,994.6,331.3,1.5,2.6,340.5,0.12,20.9,23.4,"12:03:04",1
"17/06/25","12:20",0.0,23.9,84.1,994.6,329.7,1.3,2.5,340.5,0.07,21.1,23.4,"12:11:28",1
"17/06/25","12:30",0.0,23.8,83.7,995.1,327.9,1.3,2.0,332.7,0.04,20.9,23.3,"12:28:32",1
"17/06/25","12:40",0.0,23.6,83.4,995.1,321.4,1.3,2.2,340.0,0.04,20.7,23.7,"12:30:32",1
"17/06/25","12:50",0.0,23.7,84.6,994.4,318.8,1.1,1.7,329.5,0.04,21.0,23.6,"12:46:00",1
"17/06/25","13:00",0.0,23.7,87.4,994.6,311.8,0.6,1.3,339.9,0.09,21.5,23.4,"12:51:28",1
"17/06/25","13:10",0.0,23.6,85.8,994.4,295.1,0.7,1.7,338.7,0.08,21.1,23.5,"13:07:28",1
"17/06/25","13:20",0.0,23.6,86.0,994.1,304.4,0.6,1.1,332.4,0.05,21.2,23.4,"13:12:24",1
"17/06/25","13:30",0.0,23.8,86.2,994.4,299.4,0.3,0.9,324.2,0.06,21.4,23.6,"13:26:40",1
"17/06/25","13:40",0.0,23.9,85.7,994.4,262.1,0.5,1.0,234.5,0.07,21.4,23.3,"13:36:56",1
"17/06/25","13:50",0.0,24.1,85.4,994.6,252.1,0.2,0.9,221.9,0.11,21.5,23.7,"13:40:32",1
"17/06/25","14:00",0.0,24.4,83.2,994.6,302.0,0.8,1.8,321.8,0.17,21.4,23.6,"13:58:16",1
"17/06/25","14:10",0.0,24.3,83.4,994.8,323.0,1.2,2.2,340.9,0.17,21.3,23.7,"14:09:20",1
"17/06/25","14:20",0.0,24.5,85.2,994.6,333.8,1.6,2.6,343.2,0.22,21.9,23.7,"14:12:40",1
"17/06/25","14:30",0.0,24.2,85.3,994.6,331.1,1.5,3.2,342.9,0.15,21.6,23.7,"14:22:00",1
"17/06/25","14:40",0.0,24.3,84.0,994.1,329.4,1.1,2.1,346.1,0.09,21.5,23.9,"14:30:16",1
"17/06/25","14:50",0.0,24.1,84.4,994.1,280.6,0.8,2.0,327.8,0.03,21.3,23.9,"14:40:16",1
"17/06/25","15:00",0.0,23.9,85.7,994.4,284.9,0.6,1.3,314.6,0.03,21.4,23.9,"14:51:12",1
"17/06/25","15:10",0.0,23.7,86.3,994.1,299.0,1.1,2.0,335.0,0.04,21.3,23.9,"15:05:44",1
"17/06/25","15:20",0.0,23.7,87.0,993.9,270.1,0.7,1.8,237.9,0.05,21.4,24.1,"15:18:32",1
"17/06/25","15:30",0.0,23.6,87.6,994.1,286.0,1.1,1.9,341.6,0.03,21.5,23.8,"15:29:28",1
"17/06/25","15:40",0.0,23.6,88.4,994.4,289.3,1.0,1.9,331.8,0.04,21.6,23.8,"15:39:12",1
"17/06/25","15:50",0.0,23.8,89.0,993.7,319.4,1.0,2.0,323.6,0.06,21.9,23.8,"15:40:56",1
"17/06/25","16:00",0.0,23.6,88.7,994.1,315.6,1.3,1.9,326.5,0.02,21.7,23.8,"15:52:08",1
"17/06/25","16:10",0.0,23.7,89.1,994.4,287.3,0.7,1.4,300.9,0.01,21.8,23.9,"16:04:00",1
"17/06/25","16:20",0.0,23.7,89.6,993.9,299.5,0.7,2.5,335.4,0.01,21.9,23.7,"16:12:16",1
"17/06/25","16:30",0.0,23.6,89.6,993.7,283.5,0.7,1.6,330.9,0.04,21.8,23.7,"16:22:24",1
"17/06/25","16:40",0.0,23.5,89.7,993.9,270.0,0.6,1.2,258.1,0.03,21.7,23.6,"16:30:02",1
"17/06/25","16:50",0.0,23.4,90.2,994.1,267.7,0.8,1.6,294.0,0.01,21.7,23.7,"16:47:12",1
"17/06/25","17:00",0.0,23.3,90.7,994.4,296.9,0.8,1.4,344.4,0.00,21.7,23.7,"16:58:32",1
"17/06/25","17:10",0.0,23.0,91.0,994.4,326.9,1.3,2.2,346.3,0.01,21.5,23.7,"17:04:00",1
"17/06/25","17:20",0.0,23.0,91.8,993.9,308.9,1.0,1.7,331.6,0.03,21.6,23.7,"17:13:28",1
"17/06/25","17:30",0.0,23.3,91.6,994.4,331.5,1.0,2.0,342.1,0.07,21.9,23.7,"17:25:20",1
"17/06/25","17:40",0.0,23.4,91.8,994.4,300.2,0.8,1.6,311.8,0.09,22.0,23.7,"17:31:12",1
"17/06/25","17:50",0.0,23.6,91.3,994.4,311.2,0.5,1.0,306.8,0.04,22.1,23.7,"17:40:40",1
"17/06/25","18:00",0.0,23.4,91.0,994.6,280.8,0.7,1.7,331.1,0.00,21.9,23.6,"17:58:08",1
"17/06/25","18:10",0.0,23.3,91.4,994.6,258.3,0.8,1.9,233.2,0.00,21.9,23.7,"18:04:32",1
"17/06/25","18:20",0.0,23.0,91.8,994.8,229.2,0.6,2.6,215.0,0.00,21.6,23.5,"18:12:32",1
"17/06/25","18:30",0.0,22.7,91.6,994.8,297.3,0.8,3.1,237.5,0.00,21.3,23.7,"18:26:24",1
"17/06/25","18:40",0.0,22.7,91.7,995.1,333.6,1.0,2.2,347.2,0.00,21.3,23.5,"18:37:36",1
"17/06/25","18:50",0.0,22.6,91.6,995.3,334.6,1.1,2.4,334.5,0.00,21.2,23.5,"18:42:08",1
"17/06/25","19:00",0.0,22.5,91.5,995.6,328.9,1.0,2.8,350.5,0.00,21.1,23.3,"18:51:36",1
"17/06/25","19:10",0.0,22.5,91.5,995.8,330.2,0.8,1.9,353.9,0.00,21.1,23.4,"19:02:56",1
"17/06/25","19:20",0.0,22.4,91.5,995.8,341.7,1.1,2.4,349.9,0.00,21.0,23.2,"19:19:20",1
"17/06/25","19:30",0.0,22.3,91.4,996.0,304.9,1.1,2.7,339.5,0.00,20.9,23.2,"19:26:32",1
"17/06/25","19:40",0.0,22.2,91.3,996.0,314.7,1.0,2.1,339.4,0.00,20.8,23.1,"19:38:48",1
"17/06/25","19:50",0.0,22.2,91.3,996.5,327.6,0.8,1.9,348.3,0.00,20.8,23.2,"19:40:16",1
"17/06/25","20:00",0.0,22.2,91.4,996.5,342.9,0.7,1.4,332.3,0.00,20.8,23.3,"19:54:48",1
"17/06/25","20:10",0.0,22.2,91.7,996.7,352.6,0.7,1.6,321.3,0.00,20.8,23.1,"20:01:28",1
"17/06/25","20:20",0.0,22.2,91.7,996.7,348.2,0.8,1.8,316.7,0.00,20.8,23.3,"20:18:32",1
"17/06/25","20:30",0.0,22.1,91.7,997.0,334.9,1.1,1.9,347.8,0.00,20.7,23.2,"20:24:56",1
"17/06/25","20:40",0.0,22.0,91.7,997.7,325.4,1.6,2.5,313.3,0.00,20.6,23.1,"20:31:20",1
"17/06/25","20:50",0.0,22.0,91.8,997.4,334.8,1.1,2.0,332.3,0.00,20.6,23.1,"20:49:20",1
"17/06/25","21:00",0.0,21.9,91.8,997.7,322.9,1.2,1.8,346.5,0.00,20.5,23.1,"20:50:56",1
"17/06/25","21:10",0.0,21.7,91.8,997.7,318.8,1.3,2.6,329.0,0.00,20.3,23.0,"21:00:32",1
"17/06/25","21:20",0.0,21.7,91.7,997.7,334.0,1.7,2.7,330.0,0.00,20.3,22.8,"21:15:52",1
"17/06/25","21:30",0.0,21.6,91.6,997.9,332.9,1.7,2.9,349.1,0.00,20.2,22.9,"21:27:20",1
"17/06/25","21:40",0.0,21.5,91.6,998.2,333.4,2.0,4.0,343.1,0.00,20.1,23.0,"21:36:08",1
"17/06/25","21:50",0.0,21.4,91.5,998.2,330.8,2.1,3.3,305.7,0.00,20.0,22.7,"21:45:20",1
"17/06/25","22:00",0.0,21.4,91.4,998.2,314.4,1.3,2.4,342.2,0.00,20.0,22.9,"21:57:36",1
"17/06/25","22:10",0.0,21.3,91.4,998.4,329.7,1.8,2.9,323.9,0.00,19.9,22.7,"22:06:24",1
"17/06/25","22:20",0.0,21.2,91.4,998.2,318.3,1.2,2.2,348.5,0.00,19.8,22.7,"22:10:48",1
"17/06/25","22:30",0.0,21.2,91.3,998.2,325.2,1.7,3.9,324.8,0.00,19.8,22.7,"22:29:44",1
"17/06/25","22:40",0.0,21.3,91.2,998.6,329.0,1.6,2.9,339.3,0.00,19.8,22.5,"22:30:24",1
"17/06/25","22:50",0.0,21.2,91.2,998.4,334.0,1.8,3.5,334.0,0.00,19.7,22.6,"22:48:08",1
"17/06/25","23:00",0.0,21.1,91.1,998.6,331.6,1.7,3.5,325.4,0.00,19.6,22.6,"22:54:32",1
"17/06/25","23:10",0.0,21.1,91.0,998.4,298.9,1.3,3.1,321.1,0.00,19.6,22.7,"23:06:54",1
"17/06/25","23:20",0.0,21.0,91.0,998.6,307.0,1.1,2.2,340.1,0.00,19.5,22.3,"23:15:28",1
"17/06/25","23:30",0.0,20.9,91.1,998.9,329.3,0.8,2.7,335.7,0.00,19.4,22.5,"23:25:20",1
"17/06/25","23:40",0.0,20.8,91.3,999.1,351.6,1.1,2.0,356.9,0.00,19.4,22.4,"23:34:48",1
"17/06/25","23:50",0.0,20.8,91.5,999.1,329.3,1.5,2.5,346.5,0.00,19.4,22.5,"23:42:00",1
"17/06/25","24:00",0.0,20.9,91.4,999.1,337.5,1.5,2.7,339.2,0.00,19.5,22.3,"23:52:24",1
